Date String (YYYY-MM-DD hh:mm:ss) UTC,Instrument flags,absolute air pressure of the measurement (hPa),sample flow rate (lpm),inlet stack bypass flow (lpm),air temperature of the measurement (°C),ambient temperature measured by the external sensor (°C),aerosol sample conditioner tube jacket temperature (°C),OPC LED temperature (°C),internal box temperature (°C),relative humidity of the measurement (%),span deviation,mass concentration of particles derived from Lorenz-Mie calculation of OPC scattering (μg/m³),mass concentration of particles derived from Lorenz-Mie calculation of OPC scattering (μg/m³),mass concentration of particles derived from Lorenz-Mie calculation of OPC scattering (μg/m³)
DateTimeUTC,F1_M11,P_M11,Q1_M11,Q2_M11,T1_M11,T2_M11,T3_M11,T4_M11,T5_M11,U1_M11,ZSPAN_M11,X2_M11,X0_M11,X1_M11
2024-05-25 02:00:00,SystemResetWarning,0823.7,5.00,000.00,031.3,030.5,000.0,039.7,032.9,009.2,0000.0,0002.82,0010.68,0001.31
2024-05-25 02:01:00,SystemResetWarning,0823.8,5.00,000.00,031.3,030.5,000.0,039.7,032.9,009.2,0000.0,0002.83,0010.59,0001.30
2024-05-25 02:02:00,SystemResetWarning,0823.8,4.99,000.00,031.3,030.5,000.0,039.7,032.9,009.3,0000.0,0002.84,0009.94,0001.29
2024-05-25 02:03:00,SystemResetWarning,0823.8,5.00,000.00,031.3,030.5,000.0,039.7,033.0,009.3,0000.0,0002.83,0009.76,0001.28
2024-05-25 02:04:00,SystemResetWarning,0823.8,5.00,000.00,031.3,030.5,000.0,039.7,033.0,009.3,0000.0,0002.77,0009.54,0001.28
2024-05-25 02:05:00,SystemResetWarning,0823.8,5.00,000.00,031.3,030.6,000.0,039.7,033.0,009.4,0000.0,0002.69,0009.11,0001.27
2024-05-25 02:06:00,SystemResetWarning,0823.8,5.00,000.00,031.3,030.6,000.0,039.7,033.0,009.3,0000.0,0002.72,0009.63,0001.29
2024-05-25 02:07:00,SystemResetWarning,0823.8,5.00,000.00,031.3,030.6,000.0,039.7,033.0,009.3,0000.0,0002.65,0009.85,0001.29
2024-05-25 02:08:00,SystemResetWarning,0823.8,5.00,000.00,031.3,030.6,000.0,039.7,033.0,009.0,0000.0,0002.60,0009.88,0001.30
2024-05-25 02:09:00,SystemResetWarning,0823.8,5.00,000.00,031.4,030.6,000.0,039.7,033.0,009.1,0000.0,0002.58,0009.35,0001.30
2024-05-25 02:10:00,SystemResetWarning,0823.8,5.00,000.00,031.4,030.6,000.0,039.7,033.0,009.2,0000.0,0002.60,0008.93,0001.29
2024-05-25 02:11:00,SystemResetWarning,0823.8,5.00,000.00,031.4,030.6,000.0,039.7,033.0,009.2,0000.0,0002.54,0008.45,0001.28
2024-05-25 02:12:00,SystemResetWarning,0823.9,5.00,000.00,031.4,030.6,000.0,039.8,033.0,009.3,0000.0,0002.53,0008.35,0001.29
2024-05-25 02:13:00,SystemResetWarning,0823.8,5.00,000.00,031.4,030.6,000.0,039.8,033.0,009.2,0000.0,0002.53,0008.51,0001.29
2024-05-25 02:14:00,SystemResetWarning,0823.8,5.00,000.00,031.4,030.6,000.0,039.8,033.0,009.2,0000.0,0002.59,0009.31,0001.30
2024-05-25 02:15:00,SystemResetWarning,0823.8,4.99,000.00,031.4,030.6,000.0,039.8,033.1,009.0,0000.0,0002.67,0009.46,0001.31
2024-05-25 02:16:00,SystemResetWarning,0823.8,5.00,000.00,031.4,030.6,000.0,039.8,033.1,009.0,0000.0,0002.73,0009.46,0001.31
2024-05-25 02:17:00,SystemResetWarning,0823.8,5.00,000.00,031.4,030.6,000.0,039.8,033.1,009.0,0000.0,0002.72,0009.05,0001.31
2024-05-25 02:18:00,SystemResetWarning,0823.8,5.01,000.00,031.4,030.6,000.0,039.8,033.1,009.0,0000.0,0002.66,0009.47,0001.30
2024-05-25 02:19:00,SystemResetWarning,0823.8,5.01,000.00,031.4,030.6,000.0,039.8,033.1,009.1,0000.0,0002.66,0009.39,0001.30
2024-05-25 02:20:00,SystemResetWarning,0823.8,5.00,000.00,031.4,030.6,000.0,039.8,033.1,009.1,0000.0,0002.62,0009.53,0001.30
2024-05-25 02:21:00,SystemResetWarning,0823.8,4.99,000.00,031.4,030.6,000.0,039.8,033.1,009.1,0000.0,0002.63,0009.63,0001.32
2024-05-25 02:22:00,SystemResetWarning,0823.8,4.99,000.00,031.4,030.6,000.0,039.8,033.1,009.0,0000.0,0002.68,0009.66,0001.34
2024-05-25 02:23:00,SystemResetWarning,0823.7,5.01,000.00,031.4,030.6,000.0,039.8,033.1,009.1,0000.0,0002.72,0009.71,0001.35
2024-05-25 02:24:00,SystemResetWarning,0823.8,5.01,000.00,031.4,030.6,000.0,039.8,033.1,009.1,0000.0,0002.73,0009.87,0001.35
2024-05-25 02:25:00,SystemResetWarning,0823.8,5.00,000.00,031.4,030.6,000.0,039.8,033.1,009.2,0000.0,0002.70,0009.32,0001.36
2024-05-25 02:26:00,SystemResetWarning,0823.8,5.00,000.00,031.4,030.6,000.0,039.8,033.0,009.2,0000.0,0002.71,0009.12,0001.37
2024-05-25 02:27:00,SystemResetWarning,0823.8,4.99,000.00,031.4,030.6,000.0,039.8,033.0,009.2,0000.0,0002.77,0009.67,0001.36
2024-05-25 02:28:00,SystemResetWarning,0823.8,5.00,000.00,031.4,030.6,000.0,039.8,033.0,009.3,0000.0,0002.73,0009.93,0001.35
2024-05-25 02:29:00,SystemResetWarning,0823.7,5.00,000.00,031.4,030.6,000.0,039.8,033.0,009.4,0000.0,0002.73,0010.07,0001.36
2024-05-25 02:30:00,SystemResetWarning,0823.7,5.00,000.00,031.4,030.6,000.0,039.8,033.1,009.5,0000.0,0002.73,0009.41,0001.35
2024-05-25 02:31:00,SystemResetWarning,0823.7,5.00,000.00,031.4,030.6,000.0,039.8,033.1,009.5,0000.0,0002.72,0009.33,0001.35
2024-05-25 02:32:00,SystemResetWarning,0823.7,4.99,000.00,031.4,030.6,000.0,039.8,033.1,009.5,0000.0,0002.78,0009.69,0001.36
2024-05-25 02:33:00,SystemResetWarning,0823.7,5.00,000.00,031.4,030.6,000.0,039.8,033.1,009.5,0000.0,0002.81,0010.47,0001.38
2024-05-25 02:34:00,SystemResetWarning,0823.7,5.00,000.00,031.4,030.6,000.0,039.8,033.1,009.5,0000.0,0002.85,0011.16,0001.39
2024-05-25 02:35:00,SystemResetWarning,0823.7,4.99,000.00,031.4,030.6,000.0,039.8,033.0,009.6,0000.0,0002.86,0011.32,0001.39
2024-05-25 02:36:00,SystemResetWarning,0823.7,5.00,000.00,031.4,030.5,000.0,039.8,033.1,009.6,0000.0,0002.86,0010.94,0001.40
2024-05-25 02:37:00,SystemResetWarning,0823.7,4.99,000.00,031.4,030.5,000.0,039.8,033.0,009.7,0000.0,0002.92,0010.63,0001.42
2024-05-25 02:38:00,SystemResetWarning,0823.8,5.00,000.00,031.4,030.5,000.0,039.8,033.0,009.7,0000.0,0002.91,0009.91,0001.44
2024-05-25 02:39:00,SystemResetWarning,0823.8,5.01,000.00,031.4,030.5,000.0,039.8,033.0,009.7,0000.0,0002.98,0009.52,0001.48
2024-05-25 02:40:00,SystemResetWarning,0823.8,5.01,000.00,031.4,030.5,000.0,039.8,033.0,009.8,0000.0,0003.00,0008.91,0001.51
2024-05-25 02:41:00,SystemResetWarning,0823.7,4.99,000.00,031.4,030.5,000.0,039.8,033.0,009.8,0000.0,0003.12,0009.08,0001.54
2024-05-25 02:42:00,SystemResetWarning,0823.7,4.99,000.00,031.4,030.5,000.0,039.8,033.0,009.7,0000.0,0003.17,0009.17,0001.58
2024-05-25 02:43:00,SystemResetWarning,0823.6,5.00,000.00,031.4,030.5,000.0,039.8,033.0,009.6,0000.0,0003.18,0009.58,0001.60
2024-05-25 02:44:00,SystemResetWarning,0823.6,5.01,000.00,031.4,030.4,000.0,039.8,033.0,009.4,0000.0,0003.20,0009.56,0001.61
2024-05-25 02:45:00,SystemResetWarning,0823.7,5.00,000.00,031.3,030.4,000.0,039.8,033.0,009.3,0000.0,0003.22,0009.65,0001.63
2024-05-25 02:46:00,SystemResetWarning,0823.8,4.99,000.00,031.3,030.4,000.0,039.8,033.0,009.3,0000.0,0003.23,0009.91,0001.64
2024-05-25 02:47:00,SystemResetWarning,0823.8,4.99,000.00,031.3,030.4,000.0,039.8,033.0,009.4,0000.0,0003.28,0010.20,0001.66
2024-05-25 02:48:00,SystemResetWarning,0823.7,5.00,000.00,031.3,030.4,000.0,039.8,033.0,009.5,0000.0,0003.34,0010.47,0001.68
2024-05-25 02:49:00,SystemResetWarning,0823.8,4.99,000.00,031.3,030.4,000.0,039.8,033.0,009.6,0000.0,0003.37,0011.73,0001.72
2024-05-25 02:50:00,SystemResetWarning,0823.9,5.00,000.00,031.3,030.4,000.0,039.8,033.0,009.6,0000.0,0003.38,0012.00,0001.74
2024-05-25 02:51:00,SystemResetWarning,0823.8,5.02,000.00,031.3,030.3,000.0,039.8,033.0,009.6,0000.0,0003.45,0012.23,0001.78
2024-05-25 02:52:00,SystemResetWarning,0823.9,4.99,000.00,031.3,030.3,000.0,039.7,032.9,009.7,0000.0,0003.44,0013.71,0001.80
2024-05-25 02:53:00,SystemResetWarning,0823.8,5.00,000.00,031.3,030.3,000.0,039.7,032.9,009.7,0000.0,0003.43,0014.00,0001.81
2024-05-25 02:54:00,SystemResetWarning,0823.7,5.00,000.00,031.3,030.3,000.0,039.8,032.9,009.8,0000.0,0003.47,0013.46,0001.83
2024-05-25 02:55:00,SystemResetWarning,0823.7,5.00,000.00,031.3,030.3,000.0,039.8,032.9,009.9,0000.0,0003.45,0012.69,0001.87
2024-05-25 02:56:00,SystemResetWarning,0823.8,5.01,000.00,031.3,030.3,000.0,039.7,032.9,009.9,0000.0,0003.48,0012.37,0001.89
2024-05-25 02:57:00,SystemResetWarning,0823.8,5.01,000.00,031.2,030.3,000.0,039.7,032.9,009.9,0000.0,0003.52,0013.29,0001.94
2024-05-25 02:58:00,SystemResetWarning,0823.7,5.00,000.00,031.2,030.3,000.0,039.7,032.9,009.8,0000.0,0003.56,0013.77,0001.98
2024-05-25 02:59:00,SystemResetWarning,0823.8,4.99,000.00,031.2,030.3,000.0,039.7,032.9,009.7,0000.0,0003.55,0013.80,0001.99
